| time (UTC) | temp C | wind direction | speed KPH | gust KPH | rain 1hr cm | rain 24hr cm | rain mn cm | humidity % | barometer mb |
| 20260901063544 | 13 | 210 | 11.3 | 16.1 | 0.00 | 0.03 | 0.00 | 1 | 1011.1 |
| 20260901063045 | 13 | 210 | 12.9 | 16.1 | 0.00 | 0.03 | 0.00 | 1 | 1011.1 |
| 20260901062545 | 13 | 207 | 9.7 | 14.5 | 0.00 | 0.03 | 0.00 | 1 | 1011.1 |
| 20260901062040 | 13 | 201 | 11.3 | 17.7 | 0.00 | 0.03 | 0.00 | 1 | 1011.0 |
| 20260901061539 | 13 | 199 | 11.3 | 17.7 | 0.00 | 0.03 | 0.00 | 1 | 1011.0 |
| 20260901061038 | 13 | 211 | 14.5 | 16.1 | 0.00 | 0.03 | 0.00 | 1 | 1011.0 |
| 20260901060535 | 13 | 189 | 11.3 | 16.1 | 0.00 | 0.03 | 0.00 | 1 | 1011.1 |
| 20260901060035 | 13 | 215 | 9.7 | 14.5 | 0.00 | 0.03 | 0.00 | 1 | 1011.2 |
| 20260901055534 | 13 | 202 | 11.3 | 17.7 | 0.00 | 0.03 | 0.03 | 1 | 1011.1 |
| 20260901055035 | 13 | 206 | 12.9 | 17.7 | 0.00 | 0.03 | 0.03 | 1 | 1011.2 |
| 20260901054535 | 13 | 203 | 11.3 | 17.7 | 0.00 | 0.03 | 0.03 | 1 | 1011.2 |
| 20260901054034 | 13 | 201 | 12.9 | 17.7 | 0.00 | 0.03 | 0.03 | 1 | 1011.2 |
| 20260901053534 | 13 | 213 | 12.9 | 17.7 | 0.00 | 0.03 | 0.03 | 1 | 1011.2 |
| 20260901053034 | 13 | 203 | 12.9 | 17.7 | 0.00 | 0.03 | 0.03 | 1 | 1011.2 |
| 20260901052533 | 14 | 198 | 12.9 | 19.3 | 0.00 | 0.03 | 0.03 | 1 | 1011.2 |
| 20260901052033 | 14 | 201 | 14.5 | 19.3 | 0.00 | 0.03 | 0.03 | 1 | 1011.1 |
| 20260901051535 | 14 | 196 | 14.5 | 19.3 | 0.00 | 0.03 | 0.03 | 1 | 1011.1 |
| 20260901051033 | 14 | 171 | 12.9 | 19.3 | 0.00 | 0.03 | 0.03 | 1 | 1011.2 |
| 20260901050529 | 14 | 176 | 12.9 | 17.7 | 0.00 | 0.03 | 0.03 | 1 | 1011.3 |
| 20260901050028 | 14 | 164 | 14.5 | 17.7 | 0.00 | 0.03 | 0.03 | 1 | 1011.3 |
| 20260901045527 | 14 | 180 | 12.9 | 19.3 | 0.00 | 0.03 | 0.03 | 1 | 1011.3 |
| 20260901045025 | 14 | 168 | 11.3 | 19.3 | 0.00 | 0.03 | 0.03 | 1 | 1011.4 |
| 20260901044527 | 15 | 174 | 8.0 | 16.1 | 0.00 | 0.03 | 0.03 | 1 | 1011.5 |
| 20260901044023 | 15 | 151 | 11.3 | 20.9 | 0.00 | 0.03 | 0.03 | 1 | 1011.4 |
| 20260901043521 | 15 | 157 | 14.5 | 22.5 | 0.00 | 0.03 | 0.03 | 1 | 1011.5 |
| 20260901043023 | 15 | 142 | 14.5 | 22.5 | 0.00 | 0.03 | 0.03 | 1 | 1011.6 |
| 20260901042518 | 14 | 130 | 12.9 | 19.3 | 0.00 | 0.03 | 0.03 | 1 | 1011.6 |
| 20260901042016 | 14 | 163 | 9.7 | 14.5 | 0.00 | 0.03 | 0.03 | 1 | 1011.6 |
| 20260901041516 | 14 | 180 | 8.0 | 16.1 | 0.00 | 0.03 | 0.03 | 1 | 1011.6 |
| 20260901041014 | 15 | 165 | 9.7 | 17.7 | 0.00 | 0.03 | 0.03 | 1 | 1011.6 |
| 20260901040513 | 15 | 179 | 12.9 | 24.1 | 0.00 | 0.03 | 0.03 | 1 | 1011.6 |
| 20260901040012 | 15 | 168 | 12.9 | 24.1 | 0.00 | 0.03 | 0.03 | 1 | 1011.6 |
| 20260901035509 | 15 | 149 | 17.7 | 29.0 | 0.00 | 0.03 | 0.03 | 1 | 1011.5 |
| 20260901035008 | 14 | 140 | 16.1 | 27.4 | 0.00 | 0.03 | 0.03 | 1 | 1011.5 |
| 20260901034515 | 14 | 157 | 9.7 | 14.5 | 0.00 | 0.03 | 0.03 | 1 | 1011.5 |
| 20260901034004 | 14 | 192 | 8.0 | 16.1 | 0.00 | 0.03 | 0.03 | 1 | 1011.7 |
| 20260901033503 | 14 | 203 | 9.7 | 24.1 | 0.00 | 0.03 | 0.03 | 1 | 1011.7 |
| 20260901033006 | 14 | 173 | 12.9 | 22.5 | 0.00 | 0.03 | 0.03 | 1 | 1011.6 |
| 20260901032601 | 14 | 195 | 16.1 | 22.5 | 0.00 | 0.03 | 0.03 | 1 | 1011.5 |
| 20260901032058 | 14 | 183 | 12.9 | 19.3 | 0.00 | 0.03 | 0.03 | 1 | 1011.4 |
| 20260901031557 | 14 | 207 | 16.1 | 22.5 | 0.00 | 0.03 | 0.03 | 1 | 1011.4 |
| 20260901031056 | 13 | 184 | 14.5 | 19.3 | 0.00 | 0.03 | 0.03 | 1 | 1011.3 |
| 20260901030555 | 14 | 175 | 12.9 | 20.9 | 0.00 | 0.03 | 0.03 | 1 | 1011.2 |
| 20260901030053 | 14 | 201 | 14.5 | 22.5 | 0.00 | 0.03 | 0.03 | 1 | 1011.2 |
| 20260901025551 | 14 | 193 | 17.7 | 24.1 | 0.00 | 0.03 | 0.03 | 1 | 1011.2 |
| 20260901025050 | 14 | 187 | 16.1 | 24.1 | 0.00 | 0.03 | 0.03 | 1 | 1011.1 |
| 20260901024548 | 14 | 176 | 17.7 | 24.1 | 0.00 | 0.03 | 0.03 | 1 | 1011.1 |
| 20260901024048 | 14 | 191 | 16.1 | 29.0 | 0.00 | 0.03 | 0.03 | 1 | 1011.0 |
| 20260901023545 | 15 | 203 | 17.7 | 29.0 | 0.00 | 0.03 | 0.03 | 1 | 1011.0 |
| 20260901023044 | 15 | 178 | 17.7 | 33.8 | 0.00 | 0.03 | 0.03 | 1 | 1010.9 |
| 20260901022542 | 15 | 189 | 22.5 | 35.4 | 0.00 | 0.03 | 0.03 | 1 | 1010.9 |
| 20260901022041 | 15 | 158 | 20.9 | 35.4 | 0.00 | 0.03 | 0.03 | 1 | 1010.8 |
| 20260901021539 | 15 | 186 | 24.1 | 37.0 | 0.00 | 0.03 | 0.03 | 1 | 1010.6 |
| 20260901021038 | 15 | 167 | 24.1 | 37.0 | 0.00 | 0.03 | 0.03 | 1 | 1010.5 |
| 20260901020536 | 16 | 176 | 20.9 | 33.8 | 0.00 | 0.03 | 0.03 | 6 | 1010.5 |
| 20260901020035 | 16 | 194 | 20.9 | 25.7 | 0.00 | 0.03 | 0.03 | 6 | 1010.4 |
| 20260901015532 | 16 | 209 | 19.3 | 29.0 | 0.00 | 0.03 | 0.03 | 9 | 1010.4 |
| 20260901015034 | 16 | 197 | 20.9 | 29.0 | 0.00 | 0.03 | 0.03 | 12 | 1010.4 |
| 20260901014530 | 16 | 181 | 16.1 | 25.7 | 0.00 | 0.03 | 0.03 | 19 | 1010.4 |
| 20260901014033 | 16 | 195 | 12.9 | 32.2 | 0.00 | 0.03 | 0.03 | 26 | 1010.3 |
| 20260901013528 | 16 | 171 | 12.9 | 32.2 | 0.00 | 0.03 | 0.03 | 27 | 1010.3 |
| 20260901013039 | 16 | 149 | 14.5 | 29.0 | 0.00 | 0.03 | 0.03 | 25 | 1010.3 |
| 20260901012525 | 16 | 189 | 17.7 | 29.0 | 0.00 | 0.03 | 0.03 | 23 | 1010.4 |
| 20260901012027 | 16 | 192 | 17.7 | 25.7 | 0.00 | 0.03 | 0.03 | 23 | 1010.3 |
| 20260901011533 | 16 | 202 | 14.5 | 22.5 | 0.00 | 0.03 | 0.03 | 24 | 1010.4 |
| 20260901011020 | 16 | 186 | 12.9 | 24.1 | 0.00 | 0.03 | 0.03 | 23 | 1010.4 |
| 20260901010520 | 16 | 144 | 17.7 | 27.4 | 0.00 | 0.03 | 0.03 | 22 | 1010.5 |
| 20260901010017 | 16 | 155 | 20.9 | 29.0 | 0.00 | 0.03 | 0.03 | 22 | 1010.5 |
| 20260901005514 | 16 | 147 | 20.9 | 29.0 | 0.00 | 0.03 | 0.03 | 20 | 1010.5 |
| 20260901005013 | 17 | 142 | 19.3 | 33.8 | 0.00 | 0.03 | 0.03 | 21 | 1010.7 |
| 20260901004512 | 17 | 114 | 25.7 | 33.8 | 0.00 | 0.03 | 0.03 | 23 | 1010.8 |
| 20260901004011 | 16 | 103 | 20.9 | 30.6 | 0.00 | 0.03 | 0.03 | 20 | 1010.8 |
| 20260901003509 | 16 | 97 | 20.9 | 30.6 | 0.00 | 0.03 | 0.03 | 14 | 1010.8 |
| 20260901003008 | 16 | 120 | 20.9 | 33.8 | 0.00 | 0.03 | 0.03 | 10 | 1010.7 |
| 20260901002506 | 16 | 116 | 19.3 | 30.6 | 0.00 | 0.03 | 0.03 | 6 | 1010.7 |
| 20260901002005 | 16 | 120 | 17.7 | 37.0 | 0.00 | 0.03 | 0.03 | 6 | 1010.5 |
| 20260901001503 | 16 | 98 | 27.4 | 37.0 | 0.00 | 0.03 | 0.03 | 11 | 1010.5 |
| 20260901001001 | 16 | 111 | 17.7 | 32.2 | 0.00 | 0.03 | 0.03 | 15 | 1010.4 |
| 20260901000600 | 16 | 113 | 22.5 | 33.8 | 0.00 | 0.03 | 0.03 | 16 | 1010.3 |
| 20260901000100 | 17 | 101 | 20.9 | 33.8 | 0.00 | 0.03 | 0.03 | 23 | 1010.0 |
| 20260831235600 | 17 | 100 | 19.3 | 40.2 | 0.00 | 0.03 | 0.03 | 30 | 1010.1 |
| 20260831235056 | 17 | 107 | 19.3 | 40.2 | 0.00 | 0.03 | 0.03 | 35 | 1010.0 |
| 20260831234557 | 17 | 113 | 24.1 | 51.5 | 0.00 | 0.03 | 0.03 | 37 | 1009.7 |
| 20260831234053 | 17 | 108 | 37.0 | 51.5 | 0.00 | 0.03 | 0.03 | 45 | 1009.4 |
| 20260831233550 | 18 | 113 | 29.0 | 56.3 | 0.03 | 0.03 | 0.03 | 49 | 1009.4 |
| 20260831233049 | 19 | 122 | 33.8 | 56.3 | 0.03 | 0.03 | 0.03 | 53 | 1009.0 |
| 20260831232547 | 19 | 116 | 35.4 | 56.3 | 0.03 | 0.03 | 0.03 | 52 | 1008.8 |
| 20260831232046 | 20 | 128 | 41.8 | 62.8 | 0.03 | 0.03 | 0.03 | 52 | 1008.6 |
| 20260831231546 | 19 | 140 | 43.5 | 62.8 | 0.03 | 0.03 | 0.03 | 52 | 1008.5 |
| 20260831231043 | 19 | 109 | 33.8 | 59.5 | 0.03 | 0.03 | 0.03 | 50 | 1008.5 |
| 20260831230543 | 19 | 119 | 45.1 | 59.5 | 0.03 | 0.03 | 0.03 | 53 | 1008.3 |
| 20260831230041 | 19 | 100 | 33.8 | 59.5 | 0.03 | 0.03 | 0.03 | 52 | 1008.3 |
| 20260831225538 | 20 | 106 | 41.8 | 59.5 | 0.03 | 0.03 | 0.03 | 52 | 1008.0 |
| 20260831225037 | 20 | 108 | 33.8 | 61.2 | 0.03 | 0.03 | 0.03 | 52 | 1007.7 |
| 20260831224536 | 20 | 126 | 41.8 | 61.2 | 0.03 | 0.03 | 0.03 | 52 | 1006.9 |
| 20260831224037 | 21 | 90 | 43.5 | 59.5 | 0.03 | 0.03 | 0.03 | 52 | 1006.9 |
| 20260831223534 | 22 | 111 | 17.7 | 25.7 | 0.00 | 0.00 | 0.00 | 51 | 1006.7 |
| 20260831223034 | 22 | 126 | 1.6 | 9.7 | 0.00 | 0.00 | 0.00 | 52 | 1006.5 |
| 20260831222534 | 22 | 78 | 3.2 | 9.7 | 0.00 | 0.00 | 0.00 | 52 | 1006.3 |
| 20260831222033 | 22 | 78 | 6.4 | 12.9 | 0.00 | 0.00 | 0.00 | 52 | 1006.2 |
| 20260831221532 | 22 | 59 | 4.8 | 12.9 | 0.00 | 0.00 | 0.00 | 51 | 1006.1 |
| 20260831221031 | 22 | 355 | 3.2 | 16.1 | 0.00 | 0.00 | 0.00 | 51 | 1006.1 |
| 20260831220531 | 22 | 259 | 11.3 | 16.1 | 0.00 | 0.00 | 0.00 | 52 | 1006.2 |
| 20260831220031 | 22 | 305 | 12.9 | 16.1 | 0.00 | 0.00 | 0.00 | 52 | 1006.0 |
| 20260831215530 | 22 | 242 | 3.2 | 12.9 | 0.00 | 0.00 | 0.00 | 52 | 1006.1 |
| 20260831215034 | 22 | 257 | 6.4 | 14.5 | 0.00 | 0.00 | 0.00 | 51 | 1006.2 |
| 20260831214528 | 22 | 28 | 6.4 | 17.7 | 0.00 | 0.00 | 0.00 | 52 | 1006.1 |
| 20260831214027 | 22 | 345 | 9.7 | 17.7 | 0.00 | 0.00 | 0.00 | 52 | 1006.1 |
| 20260831213530 | 22 | 311 | 12.9 | 19.3 | 0.00 | 0.00 | 0.00 | 52 | 1006.1 |
| 20260831213026 | 22 | 299 | 14.5 | 19.3 | 0.00 | 0.00 | 0.00 | 51 | 1006.1 |
| 20260831212523 | 22 | 312 | 6.4 | 14.5 | 0.00 | 0.00 | 0.00 | 51 | 1006.1 |
| 20260831212022 | 22 | 319 | 6.4 | 14.5 | 0.00 | 0.00 | 0.00 | 51 | 1006.1 |
| 20260831211521 | 22 | 281 | 6.4 | 16.1 | 0.00 | 0.00 | 0.00 | 52 | 1006.0 |
| 20260831211020 | 23 | 258 | 8.0 | 29.0 | 0.00 | 0.00 | 0.00 | 52 | 1006.0 |
| 20260831210517 | 24 | 286 | 20.9 | 29.0 | 0.00 | 0.00 | 0.00 | 50 | 1005.9 |
| 20260831210016 | 25 | 105 | 0.0 | 16.1 | 0.00 | 0.00 | 0.00 | 45 | 1006.0 |
| 20260831205514 | 26 | 360 | 8.0 | 20.9 | 0.00 | 0.00 | 0.00 | 44 | 1005.9 |
| 20260831205013 | 26 | 98 | 9.7 | 20.9 | 0.00 | 0.00 | 0.00 | 41 | 1005.7 |
| 20260831204511 | 26 | 119 | 9.7 | 20.9 | 0.00 | 0.00 | 0.00 | 40 | 1005.7 |
| 20260831204013 | 26 | 117 | 6.4 | 20.9 | 0.00 | 0.00 | 0.00 | 42 | 1005.7 |
| 20260831203509 | 26 | 138 | 9.7 | 19.3 | 0.00 | 0.00 | 0.00 | 42 | 1005.6 |
| 20260831203006 | 27 | 154 | 14.5 | 24.1 | 0.00 | 0.00 | 0.00 | 41 | 1005.7 |
| 20260831202505 | 27 | 99 | 14.5 | 25.7 | 0.00 | 0.00 | 0.00 | 41 | 1005.9 |
| 20260831202004 | 27 | 118 | 17.7 | 25.7 | 0.00 | 0.00 | 0.00 | 40 | 1005.9 |
| 20260831201507 | 27 | 139 | 9.7 | 17.7 | 0.00 | 0.00 | 0.00 | 40 | 1006.0 |
| 20260831201002 | 27 | 130 | 11.3 | 19.3 | 0.00 | 0.00 | 0.00 | 42 | 1006.0 |
| 20260831200600 | 27 | 130 | 6.4 | 24.1 | 0.00 | 0.00 | 0.00 | 42 | 1006.0 |
| 20260831200139 | 26 | 169 | 11.3 | 24.1 | 0.00 | 0.00 | 0.00 | 42 | 1006.1 |
| 20260831195557 | 27 | 110 | 6.4 | 20.9 | 0.00 | 0.00 | 0.00 | 40 | 1006.2 |
| 20260831195054 | 27 | 74 | 12.9 | 20.9 | 0.00 | 0.00 | 0.00 | 41 | 1006.3 |
| 20260831194559 | 27 | 149 | 12.9 | 25.7 | 0.00 | 0.00 | 0.00 | 41 | 1006.5 |
| 20260831194052 | 27 | 117 | 14.5 | 25.7 | 0.00 | 0.00 | 0.00 | 41 | 1006.6 |
| 20260831193550 | 27 | 101 | 12.9 | 20.9 | 0.00 | 0.00 | 0.00 | 40 | 1006.8 |
| 20260831193049 | 27 | 141 | 14.5 | 22.5 | 0.00 | 0.00 | 0.00 | 41 | 1006.9 |
| 20260831192549 | 27 | 147 | 16.1 | 22.5 | 0.00 | 0.00 | 0.00 | 42 | 1007.0 |
| 20260831192045 | 27 | 165 | 9.7 | 24.1 | 0.00 | 0.00 | 0.00 | 44 | 1007.0 |
| 20260831191546 | 26 | 181 | 14.5 | 20.9 | 0.00 | 0.00 | 0.00 | 45 | 1007.2 |
| 20260831191043 | 26 | 174 | 9.7 | 20.9 | 0.00 | 0.00 | 0.00 | 45 | 1007.1 |
| 20260831190541 | 26 | 144 | 12.9 | 20.9 | 0.00 | 0.00 | 0.00 | 47 | 1007.3 |
| 20260831190042 | 26 | 147 | 11.3 | 19.3 | 0.00 | 0.00 | 0.00 | 48 | 1007.4 |
| 20260831185538 | 26 | 156 | 12.9 | 19.3 | 0.00 | 0.00 | 0.00 | 48 | 1007.5 |
| 20260831185036 | 26 | 172 | 11.3 | 22.5 | 0.00 | 0.00 | 0.00 | 48 | 1007.6 |
| 20260831184535 | 25 | 172 | 11.3 | 19.3 | 0.00 | 0.00 | 0.00 | 49 | 1007.8 |
| 20260831184033 | 25 | 137 | 12.9 | 19.3 | 0.00 | 0.00 | 0.00 | 49 | 1008.0 |
| 20260831183533 | 25 | 175 | 9.7 | 22.5 | 0.00 | 0.00 | 0.00 | 49 | 1008.1 |
| 20260831183031 | 25 | 181 | 12.9 | 22.5 | 0.00 | 0.00 | 0.00 | 48 | 1008.3 |
| 20260831182530 | 25 | 145 | 11.3 | 17.7 | 0.00 | 0.00 | 0.00 | 49 | 1008.3 |
| 20260831182028 | 25 | 178 | 11.3 | 19.3 | 0.00 | 0.00 | 0.00 | 49 | 1008.5 |
| 20260831181530 | 25 | 145 | 9.7 | 20.9 | 0.00 | 0.00 | 0.00 | 50 | 1008.6 |
| 20260831181025 | 25 | 180 | 16.1 | 24.1 | 0.00 | 0.00 | 0.00 | 49 | 1008.8 |
| 20260831180524 | 25 | 145 | 12.9 | 27.4 | 0.00 | 0.00 | 0.00 | 49 | 1008.9 |
| 20260831180022 | 24 | 168 | 14.5 | 27.4 | 0.00 | 0.00 | 0.00 | 50 | 1009.0 |
| 20260831175520 | 24 | 168 | 14.5 | 22.5 | 0.00 | 0.00 | 0.00 | 50 | 1009.2 |
| 20260831175019 | 23 | 174 | 14.5 | 24.1 | 0.00 | 0.00 | 0.00 | 50 | 1009.3 |
| 20260831174517 | 23 | 195 | 16.1 | 25.7 | 0.00 | 0.00 | 0.00 | 51 | 1009.3 |
| 20260831174017 | 23 | 165 | 16.1 | 27.4 | 0.00 | 0.00 | 0.00 | 51 | 1009.4 |
| 20260831173515 | 23 | 140 | 16.1 | 27.4 | 0.00 | 0.00 | 0.00 | 51 | 1009.5 |
| 20260831173013 | 23 | 150 | 16.1 | 30.6 | 0.00 | 0.00 | 0.00 | 50 | 1009.5 |
| 20260831172511 | 23 | 138 | 16.1 | 30.6 | 0.00 | 0.00 | 0.00 | 50 | 1009.6 |
| 20260831172011 | 23 | 150 | 17.7 | 27.4 | 0.00 | 0.00 | 0.00 | 50 | 1009.7 |
| 20260831171509 | 23 | 149 | 12.9 | 20.9 | 0.00 | 0.00 | 0.00 | 49 | 1009.7 |
| 20260831171008 | 22 | 136 | 14.5 | 19.3 | 0.00 | 0.00 | 0.00 | 49 | 1009.9 |
| 20260831170507 | 22 | 172 | 14.5 | 27.4 | 0.00 | 0.00 | 0.00 | 47 | 1010.0 |
| 20260831170008 | 22 | 172 | 17.7 | 27.4 | 0.00 | 0.00 | 0.00 | 48 | 1010.0 |
| 20260831165503 | 22 | 164 | 14.5 | 24.1 | 0.00 | 0.00 | 0.00 | 47 | 1010.1 |
| 20260831165001 | 22 | 180 | 12.9 | 22.5 | 0.00 | 0.00 | 0.00 | 45 | 1010.1 |
| 20260831164601 | 21 | 147 | 14.5 | 22.5 | 0.00 | 0.00 | 0.00 | 43 | 1010.2 |
| 20260831164059 | 22 | 132 | 16.1 | 22.5 | 0.00 | 0.00 | 0.00 | 41 | 1010.2 |
| 20260831163600 | 22 | 139 | 14.5 | 17.7 | 0.00 | 0.00 | 0.00 | 33 | 1010.3 |
| 20260831163056 | 21 | 137 | 12.9 | 17.7 | 0.00 | 0.00 | 0.00 | 14 | 1010.3 |
| 20260831162555 | 21 | 172 | 11.3 | 19.3 | 0.00 | 0.00 | 0.00 | 1 | 1010.3 |
| 20260831162055 | 20 | 155 | 11.3 | 19.3 | 0.00 | 0.00 | 0.00 | 1 | 1010.3 |
| 20260831161552 | 20 | 131 | 11.3 | 19.3 | 0.00 | 0.00 | 0.00 | 1 | 1010.4 |
| 20260831161050 | 19 | 139 | 8.0 | 12.9 | 0.00 | 0.00 | 0.00 | 1 | 1010.2 |
| 20260831160549 | 19 | 157 | 9.7 | 16.1 | 0.00 | 0.00 | 0.00 | 1 | 1010.3 |
| 20260831160047 | 18 | 146 | 11.3 | 17.7 | 0.00 | 0.00 | 0.00 | 1 | 1010.5 |
| 20260831155546 | 18 | 179 | 8.0 | 16.1 | 0.00 | 0.00 | 0.00 | 1 | 1010.4 |
| 20260831155044 | 16 | 197 | 8.0 | 12.9 | 0.00 | 0.00 | 0.00 | 1 | 1010.5 |
| 20260831154545 | 15 | 189 | 1.6 | 6.4 | 0.00 | 0.00 | 0.00 | 1 | 1010.5 |
| 20260831154046 | 15 | 56 | 0.0 | 0.0 | 0.00 | 0.00 | 0.00 | 1 | 1010.5 |
| 20260831153541 | 15 | 56 | 0.0 | 0.0 | 0.00 | 0.00 | 0.00 | 1 | 1010.6 |
| 20260831153039 | 15 | 56 | 0.0 | 0.0 | 0.00 | 0.00 | 0.00 | 1 | 1010.6 |
| 20260831152538 | 15 | 56 | 0.0 | 0.0 | 0.00 | 0.00 | 0.00 | 1 | 1010.7 |
| 20260831152035 | 14 | 56 | 0.0 | 0.0 | 0.00 | 0.00 | 0.00 | 1 | 1010.6 |
| 20260831151534 | 13 | 56 | 0.0 | 0.0 | 0.00 | 0.00 | 0.00 | 1 | 1010.6 |
| 20260831151032 | 13 | 56 | 0.0 | 3.2 | 0.00 | 0.00 | 0.00 | 1 | 1010.7 |
| 20260831150531 | 13 | 56 | 0.0 | 8.0 | 0.00 | 0.00 | 0.00 | 1 | 1010.7 |
| 20260831150029 | 13 | 56 | 0.0 | 8.0 | 0.00 | 0.00 | 0.00 | 1 | 1010.7 |
| 20260831145527 | 12 | 66 | 0.0 | 6.4 | 0.00 | 0.00 | 0.00 | 1 | 1010.8 |
| 20260831145026 | 12 | 47 | 1.6 | 6.4 | 0.00 | 0.00 | 0.00 | 1 | 1010.8 |
| 20260831144525 | 12 | 95 | 1.6 | 9.7 | 0.00 | 0.00 | 0.00 | 1 | 1010.7 |
| 20260831144025 | 12 | 95 | 1.6 | 9.7 | 0.00 | 0.00 | 0.00 | 1 | 1010.7 |
| 20260831143523 | 12 | 110 | 4.8 | 9.7 | 0.00 | 0.00 | 0.00 | 1 | 1010.7 |
| 20260831143022 | 12 | 114 | 1.6 | 6.4 | 0.00 | 0.00 | 0.00 | 1 | 1010.7 |
| 20260831142520 | 11 | 126 | 0.0 | 6.4 | 0.00 | 0.00 | 0.00 | 1 | 1010.7 |
| 20260831142019 | 11 | 184 | 0.0 | 4.8 | 0.00 | 0.00 | 0.00 | 1 | 1010.7 |
| 20260831141517 | 11 | 184 | 0.0 | 4.8 | 0.00 | 0.00 | 0.00 | 1 | 1010.6 |
| 20260831141015 | 10 | 184 | 0.0 | 1.6 | 0.00 | 0.00 | 0.00 | 1 | 1010.6 |
| 20260831140516 | 10 | 284 | 0.0 | 0.0 | 0.00 | 0.00 | 0.00 | 1 | 1010.6 |
| 20260831140029 | 10 | 284 | 0.0 | 0.0 | 0.00 | 0.00 | 0.00 | 1 | 1010.6 |
| 20260831135510 | 10 | 284 | 0.0 | 3.2 | 0.00 | 0.03 | 0.00 | 1 | 1010.4 |
| 20260831135009 | 10 | 284 | 0.0 | 3.2 | 0.00 | 0.03 | 0.00 | 1 | 1010.4 |
| 20260831134508 | 9 | 284 | 0.0 | 0.0 | 0.00 | 0.03 | 0.00 | 1 | 1010.4 |
| 20260831134007 | 9 | 284 | 0.0 | 1.6 | 0.00 | 0.03 | 0.00 | 1 | 1010.3 |
| 20260831133504 | 8 | 284 | 0.0 | 6.4 | 0.00 | 0.03 | 0.00 | 1 | 1010.2 |
| 20260831133003 | 8 | 284 | 1.6 | 6.4 | 0.00 | 0.03 | 0.00 | 1 | 1010.2 |
| 20260831132502 | 8 | 284 | 0.0 | 4.8 | 0.00 | 0.03 | 0.00 | 1 | 1010.2 |
| 20260831132002 | 8 | 284 | 0.0 | 0.0 | 0.00 | 0.03 | 0.00 | 1 | 1010.1 |
| 20260831131602 | 8 | 284 | 0.0 | 0.0 | 0.00 | 0.03 | 0.00 | 1 | 1010.1 |
| 20260831131058 | 9 | 284 | 0.0 | 0.0 | 0.00 | 0.03 | 0.00 | 1 | 1010.1 |
| 20260831130557 | 8 | 284 | 0.0 | 0.0 | 0.00 | 0.03 | 0.00 | 1 | 1010.1 |
| 20260831130056 | 8 | 284 | 0.0 | 0.0 | 0.00 | 0.03 | 0.00 | 1 | 1009.9 |
| 20260831125554 | 9 | 284 | 0.0 | 0.0 | 0.00 | 0.03 | 0.00 | 1 | 1009.8 |
| 20260831125052 | 9 | 284 | 0.0 | 0.0 | 0.00 | 0.03 | 0.00 | 1 | 1009.8 |
| 20260831124550 | 9 | 284 | 0.0 | 0.0 | 0.00 | 0.03 | 0.00 | 1 | 1009.7 |
| 20260831124048 | 8 | 284 | 0.0 | 0.0 | 0.00 | 0.03 | 0.00 | 1 | 1009.6 |
| 20260831123547 | 8 | 284 | 0.0 | 0.0 | 0.00 | 0.03 | 0.00 | 1 | 1009.6 |
| 20260831123045 | 8 | 284 | 0.0 | 4.8 | 0.00 | 0.03 | 0.00 | 1 | 1009.5 |
| 20260831122545 | 8 | 284 | 0.0 | 4.8 | 0.00 | 0.03 | 0.00 | 1 | 1009.7 |
| 20260831122046 | 9 | 319 | 0.0 | 0.0 | 0.00 | 0.03 | 0.00 | 1 | 1009.6 |
| 20260831121546 | 10 | 333 | 0.0 | 3.2 | 0.00 | 0.03 | 0.00 | 1 | 1009.7 |
| 20260831121041 | 10 | 333 | 1.6 | 3.2 | 0.00 | 0.03 | 0.00 | 1 | 1009.8 |
| 20260831120539 | 10 | 30 | 0.0 | 4.8 | 0.00 | 0.03 | 0.00 | 1 | 1009.8 |
| 20260831120038 | 10 | 30 | 0.0 | 8.0 | 0.00 | 0.03 | 0.00 | 1 | 1009.8 |
| 20260831115536 | 10 | 8 | 4.8 | 8.0 | 0.00 | 0.03 | 0.00 | 1 | 1009.9 |
| 20260831115034 | 10 | 86 | 0.0 | 3.2 | 0.00 | 0.03 | 0.00 | 1 | 1009.8 |
| 20260831114533 | 10 | 204 | 0.0 | 3.2 | 0.00 | 0.03 | 0.00 | 1 | 1009.9 |
| 20260831114031 | 10 | 204 | 0.0 | 3.2 | 0.00 | 0.03 | 0.00 | 1 | 1010.0 |
| 20260831113530 | 9 | 204 | 0.0 | 6.4 | 0.00 | 0.03 | 0.00 | 1 | 1010.0 |
| 20260831113029 | 8 | 204 | 0.0 | 8.0 | 0.00 | 0.03 | 0.00 | 1 | 1010.1 |
| 20260831112527 | 8 | 204 | 3.2 | 9.7 | 0.00 | 0.03 | 0.00 | 1 | 1010.0 |
| 20260831112025 | 8 | 204 | 6.4 | 9.7 | 0.00 | 0.03 | 0.00 | 1 | 1009.9 |
| 20260831111524 | 8 | 192 | 8.0 | 9.7 | 0.00 | 0.03 | 0.00 | 1 | 1009.9 |
| 20260831111022 | 8 | 172 | 4.8 | 6.4 | 0.00 | 0.03 | 0.00 | 1 | 1010.0 |
| 20260831110524 | 8 | 245 | 3.2 | 4.8 | 0.00 | 0.03 | 0.00 | 1 | 1009.9 |
| 20260831110020 | 10 | 245 | 0.0 | 0.0 | 0.00 | 0.03 | 0.00 | 1 | 1009.9 |
| 20260831105522 | 10 | 245 | 0.0 | 0.0 | 0.00 | 0.03 | 0.00 | 1 | 1009.8 |
| 20260831105017 | 10 | 245 | 0.0 | 0.0 | 0.00 | 0.03 | 0.00 | 1 | 1009.7 |
| 20260831104519 | 10 | 245 | 0.0 | 0.0 | 0.00 | 0.03 | 0.00 | 1 | 1009.7 |
| 20260831104014 | 10 | 245 | 0.0 | 0.0 | 0.00 | 0.03 | 0.00 | 1 | 1009.7 |
| 20260831103512 | 11 | 245 | 0.0 | 0.0 | 0.00 | 0.03 | 0.00 | 1 | 1009.8 |
| 20260831103010 | 11 | 245 | 0.0 | 0.0 | 0.00 | 0.03 | 0.00 | 1 | 1009.7 |
| 20260831102509 | 11 | 245 | 0.0 | 0.0 | 0.00 | 0.03 | 0.00 | 1 | 1009.8 |
| 20260831102008 | 11 | 245 | 0.0 | 0.0 | 0.00 | 0.03 | 0.00 | 1 | 1009.8 |
| 20260831101512 | 11 | 245 | 0.0 | 0.0 | 0.00 | 0.03 | 0.00 | 1 | 1009.7 |
| 20260831101005 | 11 | 245 | 0.0 | 4.8 | 0.00 | 0.03 | 0.00 | 1 | 1009.6 |
| 20260831100506 | 10 | 245 | 0.0 | 6.4 | 0.00 | 0.03 | 0.00 | 1 | 1009.6 |
| 20260831100002 | 10 | 245 | 0.0 | 4.8 | 0.00 | 0.03 | 0.00 | 1 | 1009.5 |
| 20260831095501 | 11 | 245 | 0.0 | 0.0 | 0.00 | 0.03 | 0.00 | 1 | 1009.4 |
| 20260831095100 | 11 | 245 | 0.0 | 0.0 | 0.00 | 0.03 | 0.00 | 1 | 1009.4 |
| 20260831094558 | 11 | 245 | 0.0 | 0.0 | 0.00 | 0.03 | 0.00 | 1 | 1009.4 |
| 20260831094057 | 11 | 245 | 0.0 | 0.0 | 0.00 | 0.03 | 0.00 | 1 | 1009.4 |
| 20260831093558 | 11 | 245 | 0.0 | 0.0 | 0.00 | 0.03 | 0.00 | 1 | 1009.3 |
| 20260831093057 | 11 | 245 | 0.0 | 0.0 | 0.00 | 0.03 | 0.00 | 1 | 1009.2 |
| 20260831092551 | 10 | 245 | 0.0 | 0.0 | 0.00 | 0.03 | 0.00 | 1 | 1009.2 |
| 20260831092052 | 10 | 245 | 0.0 | 0.0 | 0.00 | 0.03 | 0.00 | 1 | 1009.2 |
| 20260831091548 | 9 | 245 | 0.0 | 3.2 | 0.00 | 0.03 | 0.00 | 1 | 1009.3 |
| 20260831091050 | 9 | 245 | 0.0 | 6.4 | 0.00 | 0.03 | 0.00 | 1 | 1009.1 |
| 20260831090545 | 10 | 245 | 3.2 | 6.4 | 0.00 | 0.03 | 0.00 | 1 | 1009.2 |
| 20260831090056 | 11 | 245 | 0.0 | 0.0 | 0.00 | 0.03 | 0.00 | 1 | 1009.1 |
| 20260831085543 | 11 | 245 | 0.0 | 0.0 | 0.00 | 0.03 | 0.00 | 1 | 1009.1 |
| 20260831085041 | 11 | 245 | 0.0 | 0.0 | 0.00 | 0.03 | 0.00 | 1 | 1009.1 |
| 20260831084547 | 11 | 245 | 0.0 | 0.0 | 0.00 | 0.03 | 0.00 | 1 | 1009.2 |
| 20260831084037 | 11 | 245 | 0.0 | 0.0 | 0.00 | 0.03 | 0.00 | 1 | 1009.2 |
| 20260831083536 | 11 | 245 | 0.0 | 0.0 | 0.00 | 0.03 | 0.00 | 1 | 1009.2 |
| 20260831083035 | 11 | 245 | 0.0 | 0.0 | 0.00 | 0.03 | 0.00 | 1 | 1009.3 |
| 20260831082533 | 11 | 245 | 0.0 | 0.0 | 0.00 | 0.03 | 0.00 | 1 | 1009.3 |
| 20260831082031 | 11 | 245 | 0.0 | 1.6 | 0.00 | 0.03 | 0.00 | 1 | 1009.3 |
| 20260831081530 | 11 | 245 | 0.0 | 1.6 | 0.00 | 0.03 | 0.00 | 1 | 1009.4 |
| 20260831081029 | 12 | 245 | 0.0 | 0.0 | 0.00 | 0.03 | 0.00 | 1 | 1009.5 |
| 20260831080508 | 13 | 245 | 0.0 | 0.0 | 0.00 | 0.03 | 0.00 | 1 | 1009.4 |
| 20260831080032 | 13 | 245 | 0.0 | 0.0 | 0.00 | 0.03 | 0.00 | 1 | 1009.5 |
| 20260831075524 | 13 | 245 | 0.0 | 0.0 | 0.00 | 0.05 | 0.00 | 1 | 1009.5 |
| 20260831075022 | 13 | 245 | 0.0 | 0.0 | 0.00 | 0.05 | 0.00 | 1 | 1009.5 |
| 20260831074525 | 12 | 245 | 0.0 | 0.0 | 0.00 | 0.05 | 0.00 | 1 | 1009.5 |
| 20260831074022 | 12 | 245 | 0.0 | 0.0 | 0.00 | 0.05 | 0.00 | 1 | 1009.6 |
| 20260831073522 | 12 | 245 | 0.0 | 0.0 | 0.00 | 0.05 | 0.00 | 1 | 1009.6 |
| 20260831073017 | 11 | 245 | 0.0 | 4.8 | 0.00 | 0.05 | 0.00 | 1 | 1009.6 |
| 20260831072516 | 11 | 245 | 0.0 | 6.4 | 0.00 | 0.05 | 0.00 | 1 | 1009.6 |
| 20260831072014 | 11 | 245 | 4.8 | 6.4 | 0.00 | 0.05 | 0.00 | 1 | 1009.5 |
| 20260831071513 | 11 | 285 | 0.0 | 0.0 | 0.00 | 0.05 | 0.00 | 1 | 1009.6 |
| 20260831071011 | 12 | 284 | 0.0 | 0.0 | 0.00 | 0.05 | 0.00 | 1 | 1009.6 |
| 20260831070511 | 12 | 285 | 0.0 | 0.0 | 0.00 | 0.05 | 0.00 | 1 | 1009.6 |
| 20260831070009 | 12 | 284 | 0.0 | 0.0 | 0.00 | 0.05 | 0.00 | 1 | 1009.6 |
| 20260831065510 | 12 | 284 | 0.0 | 0.0 | 0.00 | 0.05 | 0.00 | 1 | 1009.6 |
| 20260831065005 | 12 | 285 | 0.0 | 4.8 | 0.00 | 0.05 | 0.00 | 1 | 1009.6 |
| 20260831064504 | 12 | 285 | 1.6 | 4.8 | 0.00 | 0.05 | 0.00 | 1 | 1009.6 |
| 20260831064002 | 12 | 285 | 0.0 | 4.8 | 0.00 | 0.05 | 0.00 | 1 | 1009.4 |